Time,TemperatureF,DewpointF,PressureIn,WindDirection,WindDirectionDegrees,WindSpeedMPH,WindSpeedGustMPH,Humidity,HourlyPrecipIn,Conditions,Clouds,dailyrainin,SoftwareType,DateUTC
2013-02-26 00:00:00,73.1,70.0,29.81,SSE,148,4.0,14.0,90,0.00,,SKC,0.00,VWS V14.01,2013-02-26 05:00:00,
2013-02-26 00:05:00,73.1,70.0,29.82,South,171,6.0,11.0,90,0.00,,SKC,0.00,VWS V14.01,2013-02-26 05:05:00,
2013-02-26 00:10:00,73.1,70.0,29.82,SE,136,5.0,11.0,90,0.00,,SKC,0.00,VWS V14.01,2013-02-26 05:10:00,
2013-02-26 00:15:00,73.0,69.9,29.81,ESE,108,7.0,11.0,90,0.00,,SKC,0.00,VWS V14.01,2013-02-26 05:15:00,
2013-02-26 00:20:00,73.0,70.2,29.81,SSE,155,6.0,11.0,91,0.00,,SKC,0.00,VWS V14.01,2013-02-26 05:20:00,
2013-02-26 00:25:00,72.9,70.1,29.81,SSE,161,6.0,11.0,91,0.00,,SKC,0.00,VWS V14.01,2013-02-26 05:25:00,
2013-02-26 00:30:00,72.9,70.1,29.81,SE,140,1.0,4.0,91,0.00,,SKC,0.00,VWS V14.01,2013-02-26 05:30:00,
2013-02-26 00:35:00,72.8,70.0,29.81,SSE,156,5.0,8.0,91,0.00,,SKC,0.00,VWS V14.01,2013-02-26 05:35:00,
2013-02-26 00:40:00,72.8,70.0,29.81,SE,134,4.0,8.0,91,0.00,,SKC,0.00,VWS V14.01,2013-02-26 05:40:00,
2013-02-26 00:45:00,72.8,70.0,29.81,SE,145,1.0,8.0,91,0.00,,SKC,0.00,VWS V14.01,2013-02-26 05:45:00,
2013-02-26 00:50:00,72.9,70.1,29.80,ESE,123,6.0,9.0,91,0.00,,SKC,0.00,VWS V14.01,2013-02-26 05:50:00,
2013-02-26 00:55:00,72.9,70.1,29.79,East,91,4.0,10.0,91,0.00,,SKC,0.00,VWS V14.01,2013-02-26 05:55:00,
2013-02-26 01:00:00,72.9,70.1,29.80,South,184,4.0,7.0,91,0.00,,SKC,0.00,VWS V14.01,2013-02-26 06:00:00,
2013-02-26 01:05:00,73.0,70.2,29.80,SSE,165,3.0,11.0,91,0.00,,SKC,0.00,VWS V14.01,2013-02-26 06:05:00,
2013-02-26 01:10:00,72.9,70.1,29.79,SE,134,5.0,11.0,91,0.00,,SKC,0.00,VWS V14.01,2013-02-26 06:10:00,
2013-02-26 01:15:00,72.9,70.1,29.79,SE,133,8.0,11.0,91,0.00,,SKC,0.00,VWS V14.01,2013-02-26 06:15:00,
2013-02-26 01:20:00,72.9,70.1,29.79,ESE,117,8.0,11.0,91,0.00,,SKC,0.00,VWS V14.01,2013-02-26 06:20:00,
2013-02-26 01:25:00,72.9,70.1,29.79,SE,145,6.0,11.0,91,0.00,,SKC,0.00,VWS V14.01,2013-02-26 06:25:00,
2013-02-26 01:30:00,72.9,70.1,29.78,SSE,152,4.0,5.0,91,0.00,,SKC,0.00,VWS V14.01,2013-02-26 06:30:00,
2013-02-26 01:35:00,72.8,70.0,29.78,SSE,164,6.0,8.0,91,0.00,,SKC,0.00,VWS V14.01,2013-02-26 06:35:00,
2013-02-26 01:40:00,72.8,70.0,29.78,SE,137,5.0,10.0,91,0.00,,SKC,0.00,VWS V14.01,2013-02-26 06:40:00,
2013-02-26 01:45:00,72.8,70.0,29.78,East,100,4.0,10.0,91,0.00,,SKC,0.00,VWS V14.01,2013-02-26 06:45:00,
2013-02-26 01:50:00,72.8,70.0,29.78,SE,136,4.0,10.0,91,0.00,,SKC,0.00,VWS V14.01,2013-02-26 06:50:00,
2013-02-26 01:55:00,72.8,70.0,29.78,SSE,150,4.0,10.0,91,0.00,,SKC,0.00,VWS V14.01,2013-02-26 06:55:00,
2013-02-26 02:00:00,72.9,70.1,29.78,ESE,122,5.0,10.0,91,0.00,,SKC,0.00,VWS V14.01,2013-02-26 07:00:00,
2013-02-26 02:05:00,72.9,70.1,29.78,SE,145,5.0,8.0,91,0.00,,SKC,0.00,VWS V14.01,2013-02-26 07:05:00,
2013-02-26 02:10:00,73.0,70.2,29.77,ESE,114,8.0,11.0,91,0.00,,SKC,0.00,VWS V14.01,2013-02-26 07:10:00,
2013-02-26 02:15:00,73.0,70.2,29.78,ESE,105,8.0,11.0,91,0.00,,SKC,0.00,VWS V14.01,2013-02-26 07:15:00,
2013-02-26 02:20:00,72.9,70.1,29.77,East,101,2.0,11.0,91,0.00,,SKC,0.00,VWS V14.01,2013-02-26 07:20:00,
2013-02-26 02:25:00,72.9,70.1,29.77,SE,137,4.0,11.0,91,0.00,,SKC,0.00,VWS V14.01,2013-02-26 07:25:00,
2013-02-26 02:30:00,72.8,70.0,29.77,ESE,113,4.0,4.0,91,0.00,,SKC,0.00,VWS V14.01,2013-02-26 07:30:00,
2013-02-26 02:35:00,72.7,69.9,29.77,SE,146,5.0,10.0,91,0.00,,SKC,0.00,VWS V14.01,2013-02-26 07:35:00,
2013-02-26 02:40:00,72.7,69.9,29.77,SE,141,7.0,10.0,91,0.00,,SKC,0.00,VWS V14.01,2013-02-26 07:40:00,
2013-02-26 02:45:00,72.7,69.9,29.78,SSE,148,5.0,10.0,91,0.00,,SKC,0.00,VWS V14.01,2013-02-26 07:45:00,
2013-02-26 02:50:00,72.7,70.2,29.78,SSE,156,4.0,10.0,92,0.00,,SKC,0.00,VWS V14.01,2013-02-26 07:50:00,
2013-02-26 02:55:00,72.7,70.2,29.78,SSW,202,4.0,10.0,92,0.00,,SKC,0.00,VWS V14.01,2013-02-26 07:55:00,
2013-02-26 03:00:00,72.7,70.2,29.78,SSE,161,4.0,10.0,92,0.00,,SKC,0.00,VWS V14.01,2013-02-26 08:00:00,
2013-02-26 03:05:00,72.7,70.2,29.78,SE,142,2.0,7.0,92,0.00,,SKC,0.00,VWS V14.01,2013-02-26 08:05:00,
2013-02-26 03:10:00,72.7,70.2,29.78,South,183,3.0,7.0,92,0.00,,SKC,0.00,VWS V14.01,2013-02-26 08:10:00,
2013-02-26 03:15:00,72.7,70.2,29.78,SSE,148,5.0,7.0,92,0.00,,SKC,0.00,VWS V14.01,2013-02-26 08:15:00,
2013-02-26 03:20:00,72.8,70.3,29.78,SSE,155,5.0,8.0,92,0.00,,SKC,0.00,VWS V14.01,2013-02-26 08:20:00,
2013-02-26 03:25:00,73.0,70.5,29.78,SE,137,6.0,8.0,92,0.00,,SKC,0.00,VWS V14.01,2013-02-26 08:25:00,
2013-02-26 03:30:00,73.1,70.6,29.77,SE,137,4.0,6.0,92,0.00,,SKC,0.00,VWS V14.01,2013-02-26 08:30:00,
2013-02-26 03:35:00,73.2,70.7,29.77,SE,144,4.0,8.0,92,0.00,,SKC,0.00,VWS V14.01,2013-02-26 08:35:00,
2013-02-26 03:40:00,73.2,70.7,29.77,SSE,163,4.0,9.0,92,0.00,,SKC,0.00,VWS V14.01,2013-02-26 08:40:00,
2013-02-26 03:45:00,73.2,70.7,29.77,ESE,113,4.0,9.0,92,0.00,,SKC,0.00,VWS V14.01,2013-02-26 08:45:00,
2013-02-26 03:50:00,73.2,70.7,29.77,SE,128,4.0,9.0,92,0.00,,SKC,0.00,VWS V14.01,2013-02-26 08:50:00,
2013-02-26 03:55:00,73.2,71.1,29.77,South,169,4.0,9.0,93,0.00,,SKC,0.00,VWS V14.01,2013-02-26 08:55:00,
2013-02-26 04:00:00,73.1,71.0,29.77,SE,138,5.0,9.0,93,0.00,,SKC,0.00,VWS V14.01,2013-02-26 09:00:00,
2013-02-26 04:05:00,73.1,71.0,29.77,SSE,159,1.0,6.0,93,0.00,,SKC,0.00,VWS V14.01,2013-02-26 09:05:00,
2013-02-26 04:10:00,73.0,70.9,29.76,ESE,109,5.0,7.0,93,0.00,,SKC,0.00,VWS V14.01,2013-02-26 09:10:00,
2013-02-26 04:15:00,73.0,70.9,29.76,ESE,110,5.0,7.0,93,0.00,,SKC,0.00,VWS V14.01,2013-02-26 09:15:00,
2013-02-26 04:20:00,72.9,70.8,29.76,ESE,108,6.0,7.0,93,0.00,,SKC,0.00,VWS V14.01,2013-02-26 09:20:00,
2013-02-26 04:25:00,72.9,70.8,29.76,SE,139,1.0,7.0,93,0.00,,SKC,0.00,VWS V14.01,2013-02-26 09:25:00,
2013-02-26 04:30:00,72.8,70.7,29.75,East,80,4.0,7.0,93,0.00,,SKC,0.00,VWS V14.01,2013-02-26 09:30:00,
2013-02-26 04:35:00,72.8,70.7,29.75,SSE,147,2.0,6.0,93,0.00,,SKC,0.00,VWS V14.01,2013-02-26 09:35:00,
2013-02-26 04:40:00,72.8,70.7,29.75,SE,140,2.0,7.0,93,0.00,,SKC,0.00,VWS V14.01,2013-02-26 09:40:00,
2013-02-26 04:45:00,72.9,71.1,29.76,SSE,152,4.0,7.0,94,0.00,,SKC,0.00,VWS V14.01,2013-02-26 09:45:00,
2013-02-26 04:50:00,72.9,71.1,29.76,SE,141,1.0,7.0,94,0.00,,SKC,0.00,VWS V14.01,2013-02-26 09:50:00,
2013-02-26 04:55:00,73.1,71.3,29.76,SSE,150,3.0,8.0,94,0.00,,SKC,0.00,VWS V14.01,2013-02-26 09:55:00,
2013-02-26 05:00:00,73.3,71.5,29.75,SSE,164,6.0,9.0,94,0.00,,SKC,0.00,VWS V14.01,2013-02-26 10:00:00,
2013-02-26 05:05:00,73.4,71.6,29.76,South,190,4.0,10.0,94,0.00,,SKC,0.00,VWS V14.01,2013-02-26 10:05:00,
2013-02-26 05:10:00,73.5,71.4,29.76,SE,141,7.0,10.0,93,0.00,,SKC,0.00,VWS V14.01,2013-02-26 10:10:00,
2013-02-26 05:15:00,73.5,71.4,29.76,South,172,4.0,10.0,93,0.00,,SKC,0.00,VWS V14.01,2013-02-26 10:15:00,
2013-02-26 05:20:00,73.5,71.4,29.76,SE,144,5.0,10.0,93,0.00,,SKC,0.00,VWS V14.01,2013-02-26 10:20:00,
2013-02-26 05:25:00,73.6,71.5,29.76,SE,146,6.0,12.0,93,0.00,,SKC,0.00,VWS V14.01,2013-02-26 10:25:00,
2013-02-26 05:30:00,73.6,71.5,29.76,SSE,162,5.0,12.0,93,0.00,,SKC,0.00,VWS V14.01,2013-02-26 10:30:00,
2013-02-26 05:35:00,73.6,71.1,29.76,SSW,213,1.0,10.0,92,0.00,,SKC,0.00,VWS V14.01,2013-02-26 10:35:00,
2013-02-26 05:40:00,73.6,71.1,29.77,South,169,2.0,10.0,92,0.00,,SKC,0.00,VWS V14.01,2013-02-26 10:40:00,
2013-02-26 05:45:00,73.6,71.1,29.77,SSE,167,4.0,10.0,92,0.00,,SKC,0.00,VWS V14.01,2013-02-26 10:45:00,
2013-02-26 05:50:00,73.7,71.2,29.78,SE,124,4.0,10.0,92,0.00,,SKC,0.00,VWS V14.01,2013-02-26 10:50:00,
2013-02-26 05:55:00,73.7,71.2,29.78,SSW,200,2.0,10.0,92,0.00,,SKC,0.00,VWS V14.01,2013-02-26 10:55:00,
2013-02-26 06:00:00,73.7,70.9,29.78,SSE,156,4.0,10.0,91,0.00,,SKC,0.00,VWS V14.01,2013-02-26 11:00:00,
2013-02-26 06:05:00,73.9,70.8,29.78,SSE,163,4.0,12.0,90,0.00,,SKC,0.00,VWS V14.01,2013-02-26 11:05:00,
2013-02-26 06:10:00,74.0,70.9,29.79,South,169,2.0,12.0,90,0.00,,SKC,0.00,VWS V14.01,2013-02-26 11:10:00,
2013-02-26 06:15:00,74.1,70.7,29.79,SSW,207,8.0,12.0,89,0.00,,SKC,0.00,VWS V14.01,2013-02-26 11:15:00,
2013-02-26 06:20:00,74.2,70.8,29.79,SSW,192,6.0,12.0,89,0.00,,SKC,0.00,VWS V14.01,2013-02-26 11:20:00,
2013-02-26 06:25:00,74.2,70.4,29.79,SSE,148,2.0,12.0,88,0.00,,SKC,0.00,VWS V14.01,2013-02-26 11:25:00,
2013-02-26 06:30:00,74.2,70.4,29.79,SSE,167,7.0,13.0,88,0.00,,SKC,0.00,VWS V14.01,2013-02-26 11:30:00,
2013-02-26 06:35:00,74.2,70.4,29.79,SSE,161,10.0,12.0,88,0.00,,SKC,0.00,VWS V14.01,2013-02-26 11:35:00,
2013-02-26 06:40:00,74.3,70.5,29.79,SSE,167,7.0,14.0,88,0.00,,SKC,0.00,VWS V14.01,2013-02-26 11:40:00,
2013-02-26 06:45:00,74.3,70.5,29.80,SSE,155,7.0,14.0,88,0.00,,SKC,0.00,VWS V14.01,2013-02-26 11:45:00,
2013-02-26 06:50:00,74.2,70.4,29.80,SE,136,8.0,14.0,88,0.00,,SKC,0.00,VWS V14.01,2013-02-26 11:50:00,
2013-02-26 06:55:00,74.2,70.4,29.80,ESE,108,7.0,14.0,88,0.00,,SKC,0.00,VWS V14.01,2013-02-26 11:55:00,
2013-02-26 07:00:00,74.2,70.4,29.80,SE,130,6.0,14.0,88,0.00,,SKC,0.00,VWS V14.01,2013-02-26 12:00:00,
2013-02-26 07:05:00,74.2,70.4,29.80,SSE,152,6.0,14.0,88,0.00,,SKC,0.00,VWS V14.01,2013-02-26 12:05:00,
2013-02-26 07:10:00,74.3,70.5,29.79,SE,129,12.0,12.0,88,0.00,,SKC,0.00,VWS V14.01,2013-02-26 12:10:00,
2013-02-26 07:15:00,74.3,70.5,29.79,SE,129,12.0,12.0,88,0.00,,SKC,0.00,VWS V14.01,2013-02-26 12:15:00,
2013-02-26 07:27:00,74.4,70.9,29.80,SSE,159,7.0,7.0,89,0.00,,SKC,0.00,VWS V14.01,2013-02-26 12:27:00,
2013-02-26 07:32:00,74.5,71.1,29.80,SE,132,5.0,9.0,89,0.00,,SKC,0.00,VWS V14.01,2013-02-26 12:32:00,
2013-02-26 07:37:00,74.8,71.3,29.80,SSE,155,10.0,11.0,89,0.00,,SKC,0.00,VWS V14.01,2013-02-26 12:37:00,
2013-02-26 07:42:00,75.0,71.2,29.80,SSE,153,7.0,12.0,88,0.00,,SKC,0.00,VWS V14.01,2013-02-26 12:42:00,
2013-02-26 07:47:00,75.2,71.4,29.80,SE,146,8.0,14.0,88,0.00,,SKC,0.00,VWS V14.01,2013-02-26 12:47:00,
2013-02-26 07:52:00,75.3,71.5,29.80,South,169,9.0,14.0,88,0.00,,SKC,0.00,VWS V14.01,2013-02-26 12:52:00,
2013-02-26 07:57:00,75.4,71.6,29.80,ESE,119,7.0,14.0,88,0.00,,SKC,0.00,VWS V14.01,2013-02-26 12:57:00,
2013-02-26 08:02:00,75.6,71.8,29.81,SSE,148,5.0,8.0,88,0.00,,SKC,0.00,VWS V14.01,2013-02-26 13:02:00,
2013-02-26 08:07:00,75.9,71.8,29.81,South,180,9.0,15.0,87,0.00,,SKC,0.00,VWS V14.01,2013-02-26 13:07:00,
2013-02-26 08:12:00,76.1,71.9,29.81,SSW,194,6.0,6.0,87,0.00,,SKC,0.00,VWS V14.01,2013-02-26 13:12:00,
2013-02-26 08:17:00,76.2,72.1,29.82,WSW,244,7.0,11.0,87,0.00,,SKC,0.00,VWS V14.01,2013-02-26 13:17:00,
2013-02-26 08:22:00,76.3,72.2,29.82,SSE,160,9.0,13.0,87,0.00,,SKC,0.00,VWS V14.01,2013-02-26 13:22:00,
2013-02-26 08:27:00,76.3,72.2,29.82,SE,133,7.0,13.0,87,0.00,,SKC,0.00,VWS V14.01,2013-02-26 13:27:00,
2013-02-26 08:32:00,76.6,72.4,29.82,SSE,158,4.0,8.0,87,0.00,,SKC,0.00,VWS V14.01,2013-02-26 13:32:00,
2013-02-26 08:37:00,76.8,72.3,29.83,South,173,4.0,13.0,86,0.00,,SKC,0.00,VWS V14.01,2013-02-26 13:37:00,
2013-02-26 08:42:00,76.9,72.1,29.83,SW,219,7.0,13.0,85,0.00,,SKC,0.00,VWS V14.01,2013-02-26 13:42:00,
2013-02-26 08:47:00,77.0,72.2,29.83,SSE,160,6.0,13.0,85,0.00,,SKC,0.00,VWS V14.01,2013-02-26 13:47:00,
2013-02-26 08:52:00,77.2,72.0,29.83,ESE,111,9.0,18.0,84,0.00,,SKC,0.00,VWS V14.01,2013-02-26 13:52:00,
2013-02-26 08:57:00,77.4,72.2,29.83,SSE,157,13.0,18.0,84,0.00,,SKC,0.00,VWS V14.01,2013-02-26 13:57:00,
2013-02-26 09:02:00,77.6,72.0,29.83,South,188,5.0,12.0,83,0.00,,SKC,0.00,VWS V14.01,2013-02-26 14:02:00,
2013-02-26 09:07:00,77.8,72.6,29.83,SSE,155,5.0,18.0,84,0.00,,SKC,0.00,VWS V14.01,2013-02-26 14:07:00,
2013-02-26 09:12:00,78.2,72.6,29.83,SW,215,7.0,21.0,83,0.00,,SKC,0.00,VWS V14.01,2013-02-26 14:12:00,
2013-02-26 09:17:00,78.6,72.7,29.83,SSE,158,12.0,21.0,82,0.00,,SKC,0.00,VWS V14.01,2013-02-26 14:17:00,
2013-02-26 09:22:00,78.6,72.3,29.83,SE,145,6.0,21.0,81,0.00,,SKC,0.00,VWS V14.01,2013-02-26 14:22:00,
2013-02-26 09:27:00,78.9,72.6,29.83,SE,144,12.0,21.0,81,0.00,,SKC,0.00,VWS V14.01,2013-02-26 14:27:00,
2013-02-26 09:32:00,79.4,72.7,29.83,SE,143,11.0,15.0,80,0.00,,SKC,0.00,VWS V14.01,2013-02-26 14:32:00,
2013-02-26 09:37:00,79.6,72.5,29.83,SSW,204,6.0,16.0,79,0.00,,SKC,0.00,VWS V14.01,2013-02-26 14:37:00,
2013-02-26 09:42:00,80.2,72.7,29.83,SE,140,7.0,16.0,78,0.00,,SKC,0.00,VWS V14.01,2013-02-26 14:42:00,
2013-02-26 09:47:00,80.0,71.8,29.83,SSE,148,10.0,22.0,76,0.00,,SKC,0.00,VWS V14.01,2013-02-26 14:47:00,
2013-02-26 09:52:00,80.0,72.2,29.83,SE,134,10.0,24.0,77,0.00,,SKC,0.00,VWS V14.01,2013-02-26 14:52:00,
2013-02-26 09:57:00,80.4,72.2,29.83,SSE,148,8.0,24.0,76,0.00,,SKC,0.00,VWS V14.01,2013-02-26 14:57:00,
2013-02-26 10:02:00,80.7,72.4,29.83,SSE,148,9.0,14.0,76,0.00,,SKC,0.00,VWS V14.01,2013-02-26 15:02:00,
2013-02-26 10:07:00,80.7,72.0,29.83,South,179,11.0,20.0,75,0.00,,SKC,0.00,VWS V14.01,2013-02-26 15:07:00,
2013-02-26 10:12:00,80.8,72.5,29.83,SW,232,7.0,20.0,76,0.00,,SKC,0.00,VWS V14.01,2013-02-26 15:12:00,
2013-02-26 10:17:00,80.9,72.6,29.83,SSW,200,4.0,20.0,76,0.00,,SKC,0.00,VWS V14.01,2013-02-26 15:17:00,
2013-02-26 10:22:00,80.9,72.6,29.83,SSE,167,14.0,20.0,76,0.00,,SKC,0.00,VWS V14.01,2013-02-26 15:22:00,
2013-02-26 10:27:00,81.0,72.7,29.83,SE,145,14.0,22.0,76,0.00,,SKC,0.00,VWS V14.01,2013-02-26 15:27:00,
2013-02-26 10:32:00,81.2,72.5,29.83,SSW,195,12.0,16.0,75,0.00,,SKC,0.00,VWS V14.01,2013-02-26 15:32:00,
2013-02-26 10:37:00,81.4,72.3,29.83,South,183,8.0,26.0,74,0.00,,SKC,0.00,VWS V14.01,2013-02-26 15:37:00,
2013-02-26 10:42:00,81.6,72.5,29.84,South,190,12.0,26.0,74,0.00,,SKC,0.00,VWS V14.01,2013-02-26 15:42:00,
2013-02-26 10:47:00,81.8,71.9,29.84,SSE,153,9.0,26.0,72,0.00,,SKC,0.00,VWS V14.01,2013-02-26 15:47:00,
2013-02-26 10:52:00,82.1,72.2,29.85,South,171,12.0,26.0,72,0.00,,SKC,0.00,VWS V14.01,2013-02-26 15:52:00,
2013-02-26 10:57:00,82.6,72.7,29.85,SSE,147,18.0,26.0,72,0.00,,SKC,0.00,VWS V14.01,2013-02-26 15:57:00,
2013-02-26 11:02:00,82.7,72.3,29.85,SSW,199,12.0,23.0,71,0.00,,SKC,0.00,VWS V14.01,2013-02-26 16:02:00,
2013-02-26 11:07:00,82.3,72.4,29.85,SSW,211,11.0,25.0,72,0.00,,SKC,0.00,VWS V14.01,2013-02-26 16:07:00,
2013-02-26 11:12:00,82.3,72.4,29.85,South,173,19.0,25.0,72,0.00,,SKC,0.00,VWS V14.01,2013-02-26 16:12:00,
2013-02-26 11:17:00,82.4,72.5,29.85,SE,145,8.0,25.0,72,0.00,,SKC,0.00,VWS V14.01,2013-02-26 16:17:00,
2013-02-26 11:22:00,82.7,72.8,29.85,SSW,200,15.0,25.0,72,0.00,,SKC,0.00,VWS V14.01,2013-02-26 16:22:00,
2013-02-26 11:27:00,82.8,72.4,29.85,SSW,210,8.0,25.0,71,0.00,,SKC,0.00,VWS V14.01,2013-02-26 16:27:00,
2013-02-26 11:32:00,83.0,73.1,29.85,SSW,198,7.0,15.0,72,0.00,,SKC,0.00,VWS V14.01,2013-02-26 16:32:00,
2013-02-26 11:37:00,83.4,72.6,29.85,SSE,148,20.0,24.0,70,0.00,,SKC,0.00,VWS V14.01,2013-02-26 16:37:00,
2013-02-26 11:42:00,83.2,72.4,29.85,SSE,157,19.0,28.0,70,0.00,,SKC,0.00,VWS V14.01,2013-02-26 16:42:00,
2013-02-26 11:47:00,83.0,73.1,29.85,South,171,6.0,28.0,72,0.00,,SKC,0.00,VWS V14.01,2013-02-26 16:47:00,
2013-02-26 11:52:00,83.1,72.7,29.84,SSE,156,19.0,31.0,71,0.00,,SKC,0.00,VWS V14.01,2013-02-26 16:52:00,
2013-02-26 11:57:00,83.0,73.1,29.84,SSE,150,21.0,31.0,72,0.00,,SKC,0.00,VWS V14.01,2013-02-26 16:57:00,
2013-02-26 12:02:00,82.9,72.9,29.84,SSW,205,7.0,16.0,72,0.00,,SKC,0.00,VWS V14.01,2013-02-26 17:02:00,
2013-02-26 12:07:00,82.8,72.9,29.84,SSW,200,8.0,27.0,72,0.00,,SKC,0.00,VWS V14.01,2013-02-26 17:07:00,
2013-02-26 12:12:00,82.4,72.1,29.84,SSE,165,6.0,27.0,71,0.00,,SKC,0.00,VWS V14.01,2013-02-26 17:12:00,
2013-02-26 12:17:00,83.2,73.7,29.84,SSW,193,13.0,27.0,73,0.00,,SKC,0.00,VWS V14.01,2013-02-26 17:17:00,
2013-02-26 12:22:00,83.4,72.6,29.83,SW,215,14.0,27.0,70,0.00,,SKC,0.00,VWS V14.01,2013-02-26 17:22:00,
2013-02-26 12:27:00,83.2,72.8,29.84,SE,134,8.0,27.0,71,0.00,,SKC,0.00,VWS V14.01,2013-02-26 17:27:00,
2013-02-26 12:32:00,83.2,72.8,29.84,SSE,161,20.0,20.0,71,0.00,,SKC,0.00,VWS V14.01,2013-02-26 17:32:00,
2013-02-26 12:37:00,83.3,72.9,29.83,SW,233,4.0,21.0,71,0.00,,SKC,0.00,VWS V14.01,2013-02-26 17:37:00,
2013-02-26 12:42:00,83.3,72.9,29.82,SSE,153,18.0,21.0,71,0.00,,SKC,0.00,VWS V14.01,2013-02-26 17:42:00,
2013-02-26 12:47:00,83.4,73.0,29.82,SE,138,9.0,28.0,71,0.00,,SKC,0.00,VWS V14.01,2013-02-26 17:47:00,
2013-02-26 12:52:00,83.6,72.4,29.82,South,187,8.0,28.0,69,0.00,,SKC,0.00,VWS V14.01,2013-02-26 17:52:00,
2013-02-26 12:57:00,83.8,73.0,29.81,SSW,205,13.0,28.0,70,0.00,,SKC,0.00,VWS V14.01,2013-02-26 17:57:00,
2013-02-26 13:02:00,83.9,73.1,29.82,SE,133,6.0,22.0,70,0.00,,SKC,0.00,VWS V14.01,2013-02-26 18:02:00,
2013-02-26 13:07:00,83.6,72.8,29.81,South,191,14.0,22.0,70,0.00,,SKC,0.00,VWS V14.01,2013-02-26 18:07:00,
2013-02-26 13:12:00,83.2,72.8,29.81,SSW,211,5.0,27.0,71,0.00,,SKC,0.00,VWS V14.01,2013-02-26 18:12:00,
2013-02-26 13:17:00,83.6,73.6,29.81,SW,217,16.0,27.0,72,0.00,,SKC,0.00,VWS V14.01,2013-02-26 18:17:00,
2013-02-26 13:22:00,83.6,73.2,29.81,SE,142,11.0,27.0,71,0.00,,SKC,0.00,VWS V14.01,2013-02-26 18:22:00,
2013-02-26 13:27:00,83.5,73.1,29.80,SSW,203,7.0,27.0,71,0.00,,SKC,0.00,VWS V14.01,2013-02-26 18:27:00,
2013-02-26 13:32:00,82.8,72.9,29.80,SSE,159,12.0,24.0,72,0.00,,SKC,0.00,VWS V14.01,2013-02-26 18:32:00,
2013-02-26 13:37:00,82.5,73.0,29.80,South,180,6.0,25.0,73,0.00,,SKC,0.00,VWS V14.01,2013-02-26 18:37:00,
2013-02-26 13:42:00,82.6,73.1,29.80,SSE,157,15.0,25.0,73,0.00,,SKC,0.00,VWS V14.01,2013-02-26 18:42:00,
2013-02-26 13:47:00,83.0,73.5,29.79,South,175,21.0,28.0,73,0.00,,SKC,0.00,VWS V14.01,2013-02-26 18:47:00,
2013-02-26 13:52:00,83.2,73.2,29.79,South,180,21.0,28.0,72,0.00,,SKC,0.00,VWS V14.01,2013-02-26 18:52:00,
2013-02-26 13:57:00,83.2,73.7,29.80,SSE,153,8.0,28.0,73,0.00,,SKC,0.00,VWS V14.01,2013-02-26 18:57:00,
2013-02-26 14:02:00,82.8,73.7,29.80,South,185,21.0,28.0,74,0.00,,SKC,0.00,VWS V14.01,2013-02-26 19:02:00,
2013-02-26 14:07:00,81.9,73.2,29.80,South,175,18.0,28.0,75,0.00,,SKC,0.00,VWS V14.01,2013-02-26 19:07:00,
2013-02-26 14:12:00,81.2,73.3,29.80,SSE,148,11.0,28.0,77,0.00,,SKC,0.00,VWS V14.01,2013-02-26 19:12:00,
2013-02-26 14:17:00,80.6,72.7,29.80,South,171,14.0,28.0,77,0.00,,SKC,0.00,VWS V14.01,2013-02-26 19:17:00,
2013-02-26 14:22:00,80.1,72.6,29.80,SSW,200,9.0,28.0,78,0.00,,SKC,0.00,VWS V14.01,2013-02-26 19:22:00,
2013-02-26 14:27:00,80.0,72.9,29.79,South,175,8.0,28.0,79,0.00,,SKC,0.00,VWS V14.01,2013-02-26 19:27:00,
2013-02-26 14:32:00,79.8,72.7,29.79,SSE,167,13.0,24.0,79,0.00,,SKC,0.00,VWS V14.01,2013-02-26 19:32:00,
2013-02-26 14:37:00,79.7,73.0,29.79,SE,143,19.0,24.0,80,0.00,,SKC,0.00,VWS V14.01,2013-02-26 19:37:00,
2013-02-26 14:42:00,79.9,73.2,29.79,SSW,192,9.0,24.0,80,0.00,,SKC,0.00,VWS V14.01,2013-02-26 19:42:00,
2013-02-26 14:47:00,80.5,73.8,29.80,SSE,164,19.0,24.0,80,0.00,,SKC,0.00,VWS V14.01,2013-02-26 19:47:00,
2013-02-26 14:52:00,80.3,73.2,29.80,SSW,195,13.0,24.0,79,0.00,,SKC,0.00,VWS V14.01,2013-02-26 19:52:00,
2013-02-26 14:57:00,79.7,73.0,29.80,SSE,153,13.0,24.0,80,0.00,,SKC,0.00,VWS V14.01,2013-02-26 19:57:00,
2013-02-26 15:02:00,79.4,73.1,29.80,SSW,203,9.0,18.0,81,0.00,,SKC,0.00,VWS V14.01,2013-02-26 20:02:00,
2013-02-26 15:07:00,79.4,73.4,29.81,SSE,164,6.0,18.0,82,0.00,,SKC,0.00,VWS V14.01,2013-02-26 20:07:00,
2013-02-26 15:12:00,79.1,73.1,29.81,SSW,200,9.0,21.0,82,0.00,,SKC,0.00,VWS V14.01,2013-02-26 20:12:00,
2013-02-26 15:17:00,78.8,72.8,29.81,SSW,196,11.0,21.0,82,0.00,,SKC,0.00,VWS V14.01,2013-02-26 20:17:00,
2013-02-26 15:22:00,78.6,73.0,29.81,SSW,210,11.0,21.0,83,0.00,,SKC,0.00,VWS V14.01,2013-02-26 20:22:00,
2013-02-26 15:27:00,78.6,73.0,29.80,SSW,200,20.0,21.0,83,0.00,,SKC,0.00,VWS V14.01,2013-02-26 20:27:00,
2013-02-26 15:32:00,78.5,72.9,29.80,SSW,213,16.0,19.0,83,0.00,,SKC,0.00,VWS V14.01,2013-02-26 20:32:00,
2013-02-26 15:37:00,78.4,72.8,29.80,SSW,202,6.0,19.0,83,0.00,,SKC,0.00,VWS V14.01,2013-02-26 20:37:00,
2013-02-26 15:42:00,78.2,73.0,29.80,SSE,163,8.0,19.0,84,0.00,,SKC,0.00,VWS V14.01,2013-02-26 20:42:00,
2013-02-26 15:47:00,78.0,72.8,29.80,SSE,155,7.0,19.0,84,0.00,,SKC,0.00,VWS V14.01,2013-02-26 20:47:00,
2013-02-26 15:52:00,77.9,73.0,29.80,SSE,163,7.0,19.0,85,0.00,,SKC,0.00,VWS V14.01,2013-02-26 20:52:00,
2013-02-26 15:57:00,77.9,73.0,29.80,SE,145,7.0,19.0,85,0.00,,SKC,0.00,VWS V14.01,2013-02-26 20:57:00,
2013-02-26 16:02:00,77.9,73.0,29.80,South,191,11.0,15.0,85,0.00,,SKC,0.00,VWS V14.01,2013-02-26 21:02:00,
2013-02-26 16:07:00,77.9,73.0,29.80,SSW,205,5.0,15.0,85,0.00,,SKC,0.00,VWS V14.01,2013-02-26 21:07:00,
2013-02-26 16:12:00,77.8,72.9,29.80,South,186,9.0,15.0,85,0.00,,SKC,0.00,VWS V14.01,2013-02-26 21:12:00,
2013-02-26 16:17:00,77.7,72.8,29.81,SW,227,5.0,19.0,85,0.00,,SKC,0.00,VWS V14.01,2013-02-26 21:17:00,
2013-02-26 16:22:00,77.7,72.8,29.81,SSW,192,10.0,19.0,85,0.00,,SKC,0.00,VWS V14.01,2013-02-26 21:22:00,
2013-02-26 16:27:00,77.6,72.7,29.81,SSW,209,6.0,19.0,85,0.00,,SKC,0.00,VWS V14.01,2013-02-26 21:27:00,
2013-02-26 16:32:00,77.6,72.7,29.80,SW,220,9.0,11.0,85,0.00,,SKC,0.00,VWS V14.01,2013-02-26 21:32:00,
2013-02-26 16:37:00,77.6,72.7,29.80,South,191,6.0,11.0,85,0.00,,SKC,0.00,VWS V14.01,2013-02-26 21:37:00,
2013-02-26 16:42:00,77.5,72.6,29.80,WSW,241,9.0,12.0,85,0.00,,SKC,0.00,VWS V14.01,2013-02-26 21:42:00,
2013-02-26 16:47:00,77.5,72.6,29.80,South,187,4.0,14.0,85,0.00,,SKC,0.00,VWS V14.01,2013-02-26 21:47:00,
2013-02-26 16:52:00,77.4,72.5,29.80,South,180,12.0,15.0,85,0.00,,SKC,0.00,VWS V14.01,2013-02-26 21:52:00,
2013-02-26 16:57:00,77.4,72.5,29.80,SSW,210,6.0,15.0,85,0.00,,SKC,0.00,VWS V14.01,2013-02-26 21:57:00,
2013-02-26 17:02:00,77.5,72.6,29.80,SSW,206,8.0,13.0,85,0.00,,SKC,0.00,VWS V14.01,2013-02-26 22:02:00,
2013-02-26 17:07:00,77.5,72.6,29.80,SSW,207,4.0,16.0,85,0.00,,SKC,0.00,VWS V14.01,2013-02-26 22:07:00,
2013-02-26 17:12:00,77.5,72.6,29.80,South,175,8.0,16.0,85,0.00,,SKC,0.00,VWS V14.01,2013-02-26 22:12:00,
2013-02-26 17:17:00,77.5,72.6,29.79,SSW,192,11.0,16.0,85,0.00,,SKC,0.00,VWS V14.01,2013-02-26 22:17:00,
2013-02-26 17:22:00,77.4,72.5,29.79,SSW,210,8.0,16.0,85,0.00,,SKC,0.00,VWS V14.01,2013-02-26 22:22:00,
2013-02-26 17:27:00,77.2,72.7,29.80,South,188,14.0,16.0,86,0.00,,SKC,0.00,VWS V14.01,2013-02-26 22:27:00,
2013-02-26 17:32:00,76.9,72.4,29.80,SSE,160,7.0,12.0,86,0.00,,SKC,0.00,VWS V14.01,2013-02-26 22:32:00,
2013-02-26 17:37:00,76.7,72.5,29.80,SW,219,5.0,15.0,87,0.00,,SKC,0.00,VWS V14.01,2013-02-26 22:37:00,
2013-02-26 17:42:00,76.4,72.6,29.80,SSW,194,9.0,15.0,88,0.00,,SKC,0.00,VWS V14.01,2013-02-26 22:42:00,
2013-02-26 17:47:00,76.0,72.5,29.81,SSW,194,10.0,18.0,89,0.00,,SKC,0.00,VWS V14.01,2013-02-26 22:47:00,
2013-02-26 17:52:00,75.7,72.6,29.81,West,276,9.0,18.0,90,0.00,,SKC,0.00,VWS V14.01,2013-02-26 22:52:00,
2013-02-26 17:57:00,74.9,71.8,29.81,West,263,7.0,18.0,90,0.00,,SKC,0.00,VWS V14.01,2013-02-26 22:57:00,
2013-02-26 18:02:00,74.4,71.6,29.82,SW,221,4.0,10.0,91,0.00,,SKC,0.00,VWS V14.01,2013-02-26 23:02:00,
2013-02-26 18:07:00,74.1,71.6,29.82,SW,233,3.0,10.0,92,0.00,,SKC,0.00,VWS V14.01,2013-02-26 23:07:00,
2013-02-26 18:12:00,74.0,71.5,29.82,SSW,207,4.0,10.0,92,0.00,,SKC,0.00,VWS V14.01,2013-02-26 23:12:00,
2013-02-26 18:17:00,73.9,71.4,29.82,WSW,253,5.0,10.0,92,0.00,,SKC,0.00,VWS V14.01,2013-02-26 23:17:00,
2013-02-26 18:22:00,73.8,71.7,29.82,South,172,1.0,10.0,93,0.00,,SKC,0.00,VWS V14.01,2013-02-26 23:22:00,
2013-02-26 18:27:00,73.7,71.6,29.82,SW,232,2.0,10.0,93,0.00,,SKC,0.00,VWS V14.01,2013-02-26 23:27:00,
2013-02-26 18:32:00,73.6,71.5,29.82,SSW,202,5.0,5.0,93,0.00,,SKC,0.00,VWS V14.01,2013-02-26 23:32:00,
2013-02-26 18:37:00,73.5,71.4,29.82,WSW,241,0.0,5.0,93,0.00,,SKC,0.00,VWS V14.01,2013-02-26 23:37:00,
2013-02-26 18:42:00,73.4,71.3,29.82,WSW,237,1.0,5.0,93,0.00,,SKC,0.00,VWS V14.01,2013-02-26 23:42:00,
2013-02-26 18:47:00,73.4,71.3,29.83,SSW,213,1.0,5.0,93,0.00,,SKC,0.00,VWS V14.01,2013-02-26 23:47:00,
2013-02-26 18:52:00,73.4,71.3,29.83,SSW,203,0.0,5.0,93,0.00,,SKC,0.00,VWS V14.01,2013-02-26 23:52:00,
2013-02-26 18:57:00,73.3,71.2,29.83,SW,223,0.0,5.0,93,0.00,,SKC,0.00,VWS V14.01,2013-02-26 23:57:00,
2013-02-26 19:02:00,73.3,71.2,29.83,SW,232,2.0,4.0,93,0.00,,SKC,0.00,VWS V14.01,2013-02-27 00:02:00,
2013-02-26 19:07:00,73.3,71.2,29.83,SSW,203,2.0,4.0,93,0.00,,SKC,0.00,VWS V14.01,2013-02-27 00:07:00,
2013-02-26 19:12:00,73.2,71.1,29.83,WSW,253,1.0,4.0,93,0.00,,SKC,0.00,VWS V14.01,2013-02-27 00:12:00,
2013-02-26 19:17:00,73.2,71.1,29.83,SSW,202,1.0,4.0,93,0.00,,SKC,0.00,VWS V14.01,2013-02-27 00:17:00,
2013-02-26 19:22:00,73.1,71.0,29.83,SW,230,0.0,4.0,93,0.00,,SKC,0.00,VWS V14.01,2013-02-27 00:22:00,
2013-02-26 19:27:00,73.1,71.0,29.84,SW,226,1.0,4.0,93,0.00,,SKC,0.00,VWS V14.01,2013-02-27 00:27:00,
2013-02-26 19:32:00,73.1,71.0,29.84,SW,217,0.0,0.0,93,0.00,,SKC,0.00,VWS V14.01,2013-02-27 00:32:00,
2013-02-26 19:37:00,73.1,71.0,29.84,SW,229,0.0,5.0,93,0.00,,SKC,0.00,VWS V14.01,2013-02-27 00:37:00,
2013-02-26 19:42:00,73.0,70.9,29.84,SW,226,1.0,5.0,93,0.00,,SKC,0.00,VWS V14.01,2013-02-27 00:42:00,
2013-02-26 19:47:00,72.9,70.8,29.84,West,264,4.0,5.0,93,0.00,,SKC,0.00,VWS V14.01,2013-02-27 00:47:00,
2013-02-26 19:52:00,72.8,70.7,29.84,SW,232,2.0,5.0,93,0.00,,SKC,0.00,VWS V14.01,2013-02-27 00:52:00,
2013-02-26 19:57:00,72.8,70.7,29.84,SW,218,2.0,5.0,93,0.00,,SKC,0.00,VWS V14.01,2013-02-27 00:57:00,
2013-02-26 20:02:00,72.8,70.7,29.85,SSW,210,0.0,3.0,93,0.00,,SKC,0.00,VWS V14.01,2013-02-27 01:02:00,
2013-02-26 20:07:00,72.8,70.7,29.85,SW,234,0.0,3.0,93,0.00,,SKC,0.00,VWS V14.01,2013-02-27 01:07:00,
2013-02-26 20:12:00,72.7,70.6,29.85,West,261,0.0,3.0,93,0.00,,SKC,0.00,VWS V14.01,2013-02-27 01:12:00,
2013-02-26 20:17:00,72.7,70.6,29.85,WSW,251,0.0,3.0,93,0.00,,SKC,0.00,VWS V14.01,2013-02-27 01:17:00,
2013-02-26 20:22:00,72.8,70.7,29.85,West,262,4.0,9.0,93,0.00,,SKC,0.00,VWS V14.01,2013-02-27 01:22:00,
2013-02-26 20:27:00,72.7,70.6,29.86,West,273,1.0,9.0,93,0.00,,SKC,0.00,VWS V14.01,2013-02-27 01:27:00,
2013-02-26 20:32:00,72.7,70.2,29.86,West,268,3.0,6.0,92,0.00,,SKC,0.00,VWS V14.01,2013-02-27 01:32:00,
2013-02-26 20:37:00,72.7,70.6,29.86,WSW,244,1.0,6.0,93,0.00,,SKC,0.00,VWS V14.01,2013-02-27 01:37:00,
2013-02-26 20:42:00,72.5,70.1,29.86,West,263,1.0,6.0,92,0.00,,SKC,0.00,VWS V14.01,2013-02-27 01:42:00,
2013-02-26 20:47:00,72.4,69.9,29.86,WSW,245,4.0,6.0,92,0.00,,SKC,0.00,VWS V14.01,2013-02-27 01:47:00,
2013-02-26 20:52:00,72.2,69.4,29.87,WSW,254,6.0,8.0,91,0.00,,SKC,0.00,VWS V14.01,2013-02-27 01:52:00,
2013-02-26 20:57:00,72.2,69.4,29.87,WSW,256,1.0,8.0,91,0.00,,SKC,0.00,VWS V14.01,2013-02-27 01:57:00,
2013-02-26 21:02:00,72.1,69.0,29.87,West,276,6.0,6.0,90,0.00,,SKC,0.00,VWS V14.01,2013-02-27 02:02:00,
2013-02-26 21:07:00,72.1,69.0,29.88,West,273,2.0,6.0,90,0.00,,SKC,0.00,VWS V14.01,2013-02-27 02:07:00,
2013-02-26 21:12:00,72.0,68.6,29.88,WSW,250,3.0,7.0,89,0.00,,SKC,0.00,VWS V14.01,2013-02-27 02:12:00,
2013-02-26 21:17:00,71.9,68.5,29.88,WNW,290,0.0,7.0,89,0.00,,SKC,0.00,VWS V14.01,2013-02-27 02:17:00,
2013-02-26 21:22:00,71.7,68.0,29.87,WNW,291,0.0,7.0,88,0.00,,SKC,0.00,VWS V14.01,2013-02-27 02:22:00,
2013-02-26 21:27:00,71.6,67.9,29.88,West,272,1.0,7.0,88,0.00,,SKC,0.00,VWS V14.01,2013-02-27 02:27:00,
2013-02-26 21:32:00,71.3,67.6,29.88,West,267,1.0,2.0,88,0.00,,SKC,0.00,VWS V14.01,2013-02-27 02:32:00,
2013-02-26 21:37:00,71.1,67.7,29.88,West,268,0.0,2.0,89,0.00,,SKC,0.00,VWS V14.01,2013-02-27 02:37:00,
2013-02-26 21:42:00,70.8,67.1,29.88,West,267,0.0,2.0,88,0.00,,SKC,0.00,VWS V14.01,2013-02-27 02:42:00,
2013-02-26 21:47:00,70.6,66.9,29.89,West,259,0.0,2.0,88,0.00,,SKC,0.00,VWS V14.01,2013-02-27 02:47:00,
2013-02-26 21:52:00,70.2,66.5,29.89,WSW,249,0.0,2.0,88,0.00,,SKC,0.00,VWS V14.01,2013-02-27 02:52:00,
2013-02-26 21:57:00,70.0,66.3,29.89,WSW,241,0.0,2.0,88,0.00,,SKC,0.00,VWS V14.01,2013-02-27 02:57:00,
2013-02-26 22:02:00,69.8,66.4,29.89,SE,142,0.0,0.0,89,0.00,,SKC,0.00,VWS V14.01,2013-02-27 03:02:00,
2013-02-26 22:07:00,69.7,66.3,29.89,SE,145,0.0,0.0,89,0.00,,SKC,0.00,VWS V14.01,2013-02-27 03:07:00,
2013-02-26 22:12:00,69.5,66.1,29.89,WSW,238,0.0,0.0,89,0.00,,SKC,0.00,VWS V14.01,2013-02-27 03:12:00,
2013-02-26 22:17:00,69.5,66.1,29.89,West,260,0.0,0.0,89,0.00,,SKC,0.00,VWS V14.01,2013-02-27 03:17:00,
2013-02-26 22:22:00,69.4,66.0,29.89,West,260,0.0,0.0,89,0.00,,SKC,0.00,VWS V14.01,2013-02-27 03:22:00,
2013-02-26 22:27:00,69.3,65.9,29.89,WSW,241,0.0,0.0,89,0.00,,SKC,0.00,VWS V14.01,2013-02-27 03:27:00,
2013-02-26 22:32:00,69.1,65.7,29.89,WSW,241,0.0,0.0,89,0.00,,SKC,0.00,VWS V14.01,2013-02-27 03:32:00,
2013-02-26 22:37:00,69.0,65.9,29.89,WSW,241,0.0,0.0,90,0.00,,SKC,0.00,VWS V14.01,2013-02-27 03:37:00,
2013-02-26 22:42:00,68.9,65.8,29.90,WSW,241,0.0,0.0,90,0.00,,SKC,0.00,VWS V14.01,2013-02-27 03:42:00,
2013-02-26 22:47:00,68.8,65.8,29.89,WSW,241,0.0,0.0,90,0.00,,SKC,0.00,VWS V14.01,2013-02-27 03:47:00,
2013-02-26 22:52:00,68.7,65.7,29.90,WSW,241,0.0,0.0,90,0.00,,SKC,0.00,VWS V14.01,2013-02-27 03:52:00,
2013-02-26 22:57:00,68.5,65.5,29.90,WSW,241,0.0,0.0,90,0.00,,SKC,0.00,VWS V14.01,2013-02-27 03:57:00,
2013-02-26 23:02:00,68.3,65.3,29.89,WSW,241,0.0,0.0,90,0.00,,SKC,0.00,VWS V14.01,2013-02-27 04:02:00,
2013-02-26 23:07:00,68.1,65.4,29.89,WSW,241,0.0,0.0,91,0.00,,SKC,0.00,VWS V14.01,2013-02-27 04:07:00,
2013-02-26 23:12:00,68.0,65.3,29.89,WSW,242,0.0,0.0,91,0.00,,SKC,0.00,VWS V14.01,2013-02-27 04:12:00,
2013-02-26 23:17:00,67.8,65.1,29.89,WSW,242,0.0,0.0,91,0.00,,SKC,0.00,VWS V14.01,2013-02-27 04:17:00,
2013-02-26 23:22:00,67.7,65.3,29.89,WSW,241,0.0,0.0,92,0.00,,SKC,0.00,VWS V14.01,2013-02-27 04:22:00,
2013-02-26 23:27:00,67.6,65.2,29.89,WSW,242,0.0,0.0,92,0.00,,SKC,0.00,VWS V14.01,2013-02-27 04:27:00,
2013-02-26 23:32:00,67.6,65.2,29.89,WSW,241,0.0,0.0,92,0.00,,SKC,0.00,VWS V14.01,2013-02-27 04:32:00,
2013-02-26 23:37:00,67.4,65.0,29.89,WSW,241,0.0,0.0,92,0.00,,SKC,0.00,VWS V14.01,2013-02-27 04:37:00,
2013-02-26 23:42:00,67.2,64.8,29.88,WSW,241,0.0,0.0,92,0.00,,SKC,0.00,VWS V14.01,2013-02-27 04:42:00,
2013-02-26 23:47:00,67.0,64.6,29.89,WSW,241,0.0,0.0,92,0.00,,SKC,0.00,VWS V14.01,2013-02-27 04:47:00,
2013-02-26 23:52:00,67.1,65.0,29.89,WSW,241,0.0,0.0,93,0.00,,SKC,0.00,VWS V14.01,2013-02-27 04:52:00,
2013-02-26 23:57:00,67.1,65.0,29.88,WSW,242,0.0,0.0,93,0.00,,SKC,0.00,VWS V14.01,2013-02-27 04:57:00,